Temperature
18 18 17 17 17 17 17 17 17 17 17 17 17 17 17 17 17 17 17 17 17 17 16 16 17 16 16 16 16 16 16 16 16 16 15 15 15 14 14 14 14 14 14
18 17 17 17 17 17 17 17 17 17 17 17 17 17 17 17 17 17 17 16 16 16 16 16 16 16 16 16 16 16 16 16 16 15 15 14 14 14 14 13 13 13 13
18 17 17 17 17 17 17 17 17 17 17 17 17 17 17 16 16 17 16 16 16 16 16 16 16 16 16 16 16 16 16 16 15 15 14 14 14 13 13 13 12 12 12
17 17 17 17 17 17 17 17 17 17 17 17 17 17 16 16 16 16 16 16 16 16 16 16 16 16 16 16 16 15 15 15 15 15 14 14 13 13 12 12 12 11 11
17 17 17 17 17 17 17 17 17 17 16 16 16 16 16 16 16 16 16 16 16 16 16 16 16 15 15 15 15 15 15 14 14 14 14 13 13 12 12 12 11 11 10
17 17 17 17 17 17 17 17 17 17 16 16 16 16 16 16 16 16 16 15 15 15 15 15 15 15 15 15 15 15 14 14 14 13 13 13 12 12 12 11 11 10 10
18 17 17 17 17 17 17 17 16 16 16 16 16 16 16 16 16 16 15 15 15 15 15 15 15 15 15 14 14 14 14 14 13 13 13 13 12 12 11 11 10 10 10
18 17 17 17 17 17 17 16 16 16 16 16 16 15 15 15 15 15 15 15 15 14 14 14 14 14 14 14 14 13 13 13 13 13 12 12 12 11 11 11 10 10 9
18 17 17 17 17 16 16 16 16 16 16 15 15 15 15 15 15 15 15 14 14 14 14 14 13 13 13 13 13 13 13 12 12 12 12 11 11 11 10 10 9 9 8
18 17 17 17 17 16 16 16 16 15 15 15 15 15 15 15 15 14 14 14 14 13 13 13 13 13 13 12 12 12 12 12 11 11 11 10 10 10 10 9 9 9 9
18 17 17 17 16 16 16 15 15 15 15 15 15 15 14 14 14 14 14 13 13 13 12 12 12 12 12 12 12 11 11 11 11 10 10 10 9 9 9 8 8 8 8
17 17 17 16 16 15 15 15 15 14 14 14 14 14 14 14 13 13 13 13 12 12 12 12 12 11 11 11 11 11 10 10 10 9 9 9 8 8 8 8 8 7 7
17 16 16 16 15 15 14 14 14 14 14 14 13 13 13 13 13 12 12 12 12 11 11 11 11 11 10 10 10 10 9 9 9 9 8 8 8 7 7 7 7 7 7
16 16 15 15 14 14 14 14 13 13 13 13 13 13 12 12 12 12 12 11 11 11 10 10 10 10 9 9 9 9 8 8 8 8 8 7 7 7 7 7 6 6 6
15 15 14 14 14 13 13 13 13 13 13 13 13 12 12 12 11 11 11 11 10 10 9 9 9 9 8 8 8 8 8 7 8 8 7 7 7 7 6 6 6 6 6
14 14 14 13 13 13 13 13 12 12 12 12 12 12 11 11 11 11 10 10 10 9 9 9 8 8 8 8 8 8 7 7 7 7 7 7 7 7 6 6 6 6 6
14 14 13 13 12 12 12 12 12 12 11 11 11 11 11 11 10 10 10 9 9 9 8 8 8 8 8 8 8 8 7 7 7 7 6 6 6 6 6 6 6 6 6
13 13 12 12 12 11 11 11 11 11 10 10 10 10 10 10 10 9 9 9 8 8 8 8 8 8 8 8 7 7 7 7 6 6 6 6 6 6 6 6 6 6 6
12 12 11 11 11 11 10 10 10 10 10 9 9 9 9 9 9 8 8 8 8 8 8 8 8 8 8 7 7 7 6 6 6 6 6 6 6 6 6 6 6 5 6
11 11 11 10 10 10 10 10 9 9 9 9 9 8 8 8 8 8 8 8 8 8 8 8 7 7 7 7 6 6 6 6 6 6 6 6 6 6 6 6 6 6 6
10 10 10 10 10 10 9 9 9 9 8 8 8 8 8 8 8 7 7 7 8 8 7 7 7 7 7 6 6 6 6 6 6 6 6 6 6 5 5 5 5 6 6
9 9 9 9 9 9 9 8 8 8 8 8 8 7 7 7 7 7 7 7 7 7 7 7 7 7 6 6 6 6 6 6 5 5 5 5 5 5 5 5 5 6 6
9 9 9 8 8 8 8 8 8 8 8 7 7 7 7 7 7 7 7 7 7 7 6 6 6 6 6 6 5 5 5 5 5 5 5 5 5 5 5 5 5 5 5
8 8 8 8 8 8 8 8 8 7 7 7 7 7 7 6 6 6 6 6 6 6 6 6 6 6 5 5 5 5 5 5 5 5 5 5 5 5 5 5 5 5 5
8 8 8 8 8 8 8 8 7 7 7 7 7 7 7 6 6 6 6 6 6 6 6 6 5 5 5 5 5 5 5 5 4 5 4 4 5 5 5 5 5 5 5
8 8 8 8 8 8 8 7 7 7 7 7 7 7 7 7 6 6 6 6 6 6 6 6 5 5 5 5 5 5 5 5 5 5 5 5 5 5 5 5 5 5 5
Wind_Speed
7 7 6 7 7 7 7 7 7 7 7 8 8 8 8 8 8 8 8 7 8 7 7 8 8 6 5 5 6 6 5 4 4 3 3 4 5 6 8 9 10 10 12
7 7 7 6 6 7 7 7 7 7 7 7 7 7 8 8 8 8 8 7 7 8 8 7 8 6 6 6 5 6 4 4 5 5 4 4 5 6 7 7 8 9 10
7 7 7 7 6 6 6 6 6 6 6 6 7 7 7 7 7 7 7 7 7 7 7 7 7 7 7 6 6 5 5 5 5 6 6 5 5 6 7 6 7 7 9
7 7 6 6 6 6 6 5 5 5 6 6 6 6 6 6 6 6 6 6 6 5 5 5 5 6 7 6 5 5 5 5 5 6 6 6 5 6 6 6 6 5 5
7 7 6 6 5 5 5 5 5 4 5 4 4 4 4 4 4 5 5 5 5 4 4 4 3 2 1 2 3 5 6 5 6 6 6 6 6 7 6 6 7 6 4
7 7 6 6 6 5 4 4 4 4 3 3 3 3 3 2 2 2 3 4 4 4 4 3 3 4 5 5 4 3 3 6 6 6 6 7 7 7 6 7 7 6 4
7 6 6 6 6 5 5 4 4 4 3 3 3 3 2 2 4 3 2 3 3 3 3 3 3 4 6 6 7 7 5 4 3 4 6 6 7 7 8 8 7 5 4
8 7 6 6 6 6 5 5 4 3 3 3 3 2 2 3 4 3 3 3 2 2 2 3 4 4 4 6 7 6 5 4 4 3 4 4 5 7 7 7 7 6 5
8 7 6 6 6 6 6 5 4 4 4 3 3 3 3 3 4 4 3 3 4 3 2 3 4 5 6 8 8 8 7 6 11 12 11 11 10 9 8 7 7 7 5
7 7 6 6 6 6 6 5 5 4 4 4 3 3 3 3 3 3 3 4 4 4 4 4 4 5 6 7 8 8 8 7 8 9 10 11 11 10 8 5 6 6 5
6 6 6 6 6 5 5 4 5 5 4 4 4 3 3 3 4 3 1 3 5 5 4 4 4 7 7 5 5 6 8 9 9 9 8 8 7 7 6 4 2 2 3
6 6 5 5 4 5 5 4 4 5 5 5 5 4 3 3 3 4 3 2 2 5 4 4 5 9 8 7 6 9 10 9 8 7 7 6 6 6 5 6 6 5 4
6 5 5 5 4 4 5 5 5 5 4 4 4 4 3 3 4 6 6 5 5 4 5 8 10 11 10 9 10 10 9 7 7 7 7 6 6 6 6 6 7 6 6
6 5 5 4 4 3 3 3 4 4 5 5 5 4 4 4 4 5 5 6 8 7 7 10 11 9 8 9 9 6 5 5 6 7 7 7 6 6 6 5 5 5 5
5 4 4 4 4 3 3 1 1 2 2 4 4 5 5 5 4 4 5 6 6 7 9 7 7 7 7 7 6 6 6 6 5 6 6 6 6 6 5 4 3 4 4
4 4 3 3 3 4 4 3 7 5 5 4 3 2 3 4 7 7 6 7 8 9 8 7 7 7 7 7 7 7 6 6 6 6 6 6 6 6 5 5 4 3 3
3 3 3 3 3 3 4 4 3 3 6 6 5 5 6 8 9 9 9 9 8 8 6 6 6 6 7 7 7 7 6 6 6 6 6 6 6 5 5 5 4 4 3
2 2 2 2 3 3 3 3 4 4 4 3 4 6 8 9 9 9 9 8 6 5 6 6 6 6 6 7 6 6 6 7 6 6 6 5 5 5 5 5 4 4 3
2 2 1 2 2 2 3 3 3 4 4 4 4 5 6 8 8 7 7 6 6 6 6 6 6 6 6 6 6 6 6 6 6 6 6 6 5 5 5 5 4 5 4
2 3 2 2 2 2 3 3 3 4 4 5 5 5 6 6 5 6 6 5 5 5 5 6 6 6 6 6 7 6 6 6 7 6 6 6 6 5 6 5 5 5 5
2 3 3 2 2 3 3 3 4 4 4 4 5 5 6 6 6 6 6 5 4 5 5 6 6 6 7 7 7 7 7 6 6 6 6 6 6 6 5 5 5 5 5
2 2 2 2 3 3 3 3 4 4 5 5 5 6 6 5 5 5 5 5 5 4 5 5 6 6 6 7 7 7 7 7 7 7 6 6 6 6 6 5 6 5 5
3 3 3 3 3 4 4 3 3 4 4 4 5 5 6 4 4 4 5 5 5 5 5 6 6 6 6 7 8 7 7 6 6 7 7 7 6 6 6 6 7 7 6
3 3 3 4 3 3 4 4 4 4 4 4 4 4 5 4 4 4 4 4 5 5 6 6 7 7 8 8 8 9 9 8 8 9 9 7 7 6 7 7 7 8 7
3 3 4 3 4 4 4 4 4 4 4 4 4 4 5 5 5 5 5 5 6 6 7 8 8 9 11 11 10 9 9 8 8 8 9 9 8 8 8 8 7 8 8
4 4 3 3 3 3 4 4 4 4 4 4 4 5 5 5 5 5 6 6 6 7 8 8 10 10 11 12 12 11 11 11 12 11 10 9 9 9 9 8 9 9 9
Wind_Direction
190 192 197 200 203 206 208 208 209 215 217 217 217 220 224 227 228 226 231 230 230 230 230 227 228 242 240 239 235 234 235 233 217 183 143 132 135 131 124 124 124 121 116
184 186 192 194 196 200 203 206 206 208 214 215 217 219 224 226 224 223 227 227 228 230 230 228 227 221 221 234 232 228 221 216 205 176 164 154 143 138 132 130 127 124 119
181 185 187 189 189 190 192 197 199 202 208 213 213 217 222 224 223 226 229 228 229 232 233 228 226 223 224 223 222 218 209 196 187 178 172 158 153 146 137 127 118 115 120
181 183 186 190 188 187 186 188 192 200 208 211 216 219 218 218 220 225 228 230 229 231 233 233 232 227 224 219 211 202 193 183 176 175 165 161 156 150 148 148 140 132 129
182 184 188 186 184 184 183 185 190 198 205 207 210 211 216 219 221 219 220 219 216 217 222 225 225 202 196 202 204 187 181 183 177 175 169 167 169 168 171 168 154 141 129
181 180 179 178 176 175 175 175 180 188 194 192 199 203 207 220 108 128 208 212 209 207 209 205 181 150 129 118 112 118 162 181 183 182 181 181 180 177 166 163 155 156 158
176 176 176 178 177 176 176 177 180 183 181 182 184 192 191 144 111 134 162 191 195 197 193 184 177 145 132 131 119 110 95 84 120 185 187 186 174 173 168 168 168 166 148
174 176 177 179 177 174 175 173 175 177 177 175 171 174 167 133 118 130 142 161 153 153 162 160 152 147 141 138 128 115 103 86 92 131 153 161 156 156 165 164 152 138 128
174 176 176 179 178 178 179 176 176 175 174 170 162 159 160 137 118 134 151 139 132 128 127 135 143 143 126 132 134 129 119 103 82 87 93 102 107 124 141 149 154 161 159
174 175 177 178 177 180 179 177 173 170 170 162 144 143 151 151 127 145 162 149 143 140 129 123 113 130 136 146 147 142 138 133 125 113 105 111 116 120 128 151 167 174 165
165 165 168 171 174 172 168 169 168 169 167 160 148 143 141 133 129 121 160 164 160 154 149 144 129 119 124 128 139 139 136 135 130 124 120 118 116 118 127 130 131 170 169
153 156 157 160 164 160 161 162 164 167 165 162 155 147 133 120 110 118 110 115 138 150 148 140 128 127 125 123 122 120 127 133 129 127 127 126 126 125 121 114 101 85 71
145 146 149 154 161 165 167 166 168 177 183 178 173 170 161 144 126 115 115 105 98 120 115 108 118 126 124 117 119 132 144 141 136 134 132 129 126 122 121 122 119 117 116
151 156 161 165 166 159 168 181 188 191 192 186 185 185 176 164 158 154 150 137 126 123 123 118 118 119 118 117 134 143 144 134 139 139 136 133 132 135 138 143 145 147 141
159 167 171 173 169 161 150 95 213 194 206 205 198 188 184 184 168 162 167 161 156 149 144 141 140 141 143 147 148 141 141 144 145 142 143 144 145 145 145 148 156 162 159
171 177 179 177 175 176 162 126 53 55 73 78 70 122 136 118 129 133 132 130 132 151 156 155 159 163 165 165 160 157 159 159 155 152 154 156 156 156 152 152 162 171 163
177 182 184 184 181 183 181 176 157 87 70 72 84 100 116 128 134 138 138 137 146 164 168 165 169 171 174 169 167 164 161 154 156 165 167 166 162 160 160 161 168 174 171
168 164 188 186 186 190 192 190 181 169 156 121 90 105 123 132 138 142 146 147 156 182 183 177 178 177 174 169 168 164 157 157 164 166 166 167 166 168 171 174 174 175 177
160 161 174 181 180 181 180 179 169 162 155 144 135 119 124 133 135 146 167 181 177 186 191 186 180 176 173 170 166 163 163 166 167 170 170 174 176 182 184 187 178 167 211
126 109 137 166 157 161 166 165 159 157 157 154 155 151 150 157 160 167 188 201 194 185 185 183 177 174 173 172 170 169 169 172 175 183 179 182 188 192 191 196 195 195 209
122 127 139 145 145 152 153 156 155 156 161 162 161 152 160 172 175 177 185 193 194 187 185 183 178 180 180 178 176 178 183 185 184 187 185 188 192 193 198 201 204 214 219
136 136 140 137 138 139 138 145 149 155 161 162 154 147 170 188 178 176 183 185 187 185 181 181 185 185 183 179 177 183 188 188 186 186 188 191 194 199 205 211 213 218 226
127 129 127 123 126 132 140 138 140 147 153 156 152 153 168 186 186 182 182 182 183 183 183 185 187 183 179 178 183 189 196 193 189 188 193 197 201 207 212 216 221 228 234
125 129 128 128 132 139 139 137 138 143 149 156 161 163 168 179 186 183 183 180 178 181 184 187 191 188 182 185 190 194 195 194 194 195 201 209 214 219 221 223 230 234 237
122 122 126 131 139 140 138 140 144 152 160 164 167 172 176 180 185 189 189 185 185 187 189 192 193 194 193 194 196 194 175 182 206 212 204 216 224 227 232 234 236 240 242
122 126 131 137 143 146 148 154 158 163 171 180 185 188 189 189 191 194 194 194 197 196 199 202 203 201 199 201 200 191 181 191 207 225 232 227 228 230 231 236 239 241 245
Height
1535 1536 1537 1537 1539 1540 1542 1543 1545 1547 1549 1550 1552 1553 1555 1556 1557 1558 1560 1560 1561 1562 1563 1564 1565 1566 1568 1569 1570 1571 1572 1573 1574 1575 1575 1576 1577 1578 1578 1580 1580 1581 1581
1533 1534 1535 1536 1537 1538 1540 1541 1543 1544 1546 1547 1549 1550 1551 1552 1553 1554 1555 1557 1558 1558 1559 1560 1561 1562 1563 1565 1566 1567 1568 1569 1570 1571 1572 1573 1573 1575 1576 1577 1578 1579 1579
1532 1533 1534 1535 1536 1537 1538 1539 1541 1542 1543 1545 1546 1547 1548 1549 1550 1551 1552 1553 1554 1555 1555 1556 1557 1558 1559 1560 1561 1562 1563 1565 1566 1567 1568 1569 1571 1572 1573 1574 1575 1576 1577
1531 1532 1533 1534 1535 1536 1537 1538 1539 1540 1541 1542 1543 1544 1545 1546 1547 1547 1548 1549 1550 1550 1551 1552 1552 1553 1554 1555 1556 1558 1559 1561 1562 1564 1565 1566 1567 1568 1570 1572 1573 1574 1575
1530 1531 1532 1533 1533 1534 1535 1536 1537 1538 1539 1540 1541 1541 1542 1543 1543 1544 1544 1545 1546 1547 1547 1548 1549 1549 1550 1552 1553 1554 1555 1557 1558 1560 1561 1562 1564 1565 1567 1569 1570 1571 1572
1528 1529 1530 1531 1532 1533 1534 1535 1536 1536 1537 1538 1539 1539 1540 1540 1541 1541 1541 1542 1543 1543 1544 1544 1545 1546 1547 1547 1549 1550 1552 1553 1554 1556 1558 1559 1560 1562 1564 1565 1567 1568 1569
1526 1528 1529 1530 1531 1532 1533 1533 1534 1535 1536 1536 1537 1537 1537 1538 1538 1538 1538 1539 1539 1540 1540 1541 1542 1542 1543 1544 1545 1546 1547 1549 1551 1553 1555 1556 1557 1559 1561 1562 1564 1565 1566
1525 1526 1527 1528 1529 1530 1531 1531 1532 1533 1533 1534 1534 1534 1535 1535 1535 1535 1536 1536 1536 1536 1537 1538 1538 1539 1540 1541 1542 1544 1545 1547 1548 1550 1552 1553 1555 1556 1558 1560 1561 1562 1564
1523 1524 1525 1526 1527 1528 1528 1529 1530 1531 1531 1531 1532 1532 1532 1532 1533 1533 1533 1533 1533 1534 1534 1535 1536 1537 1538 1539 1540 1541 1543 1544 1546 1547 1549 1550 1551 1553 1555 1557 1558 1560 1562
1520 1521 1522 1523 1524 1525 1526 1527 1527 1528 1528 1529 1529 1530 1530 1530 1530 1531 1531 1531 1531 1531 1532 1533 1534 1535 1536 1537 1538 1539 1540 1541 1543 1544 1546 1548 1549 1551 1552 1554 1556 1558 1560
1517 1519 1520 1521 1521 1522 1523 1524 1525 1525 1526 1526 1526 1527 1527 1528 1528 1528 1529 1529 1529 1529 1530 1531 1532 1533 1534 1535 1536 1537 1538 1540 1541 1543 1544 1546 1547 1549 1550 1552 1554 1556 1558
1514 1516 1517 1518 1519 1519 1520 1521 1522 1522 1523 1524 1524 1524 1524 1525 1525 1526 1526 1527 1527 1528 1528 1529 1530 1531 1532 1534 1535 1536 1537 1538 1540 1541 1543 1544 1546 1548 1549 1551 1552 1553 1555
1511 1513 1514 1515 1516 1516 1517 1518 1519 1519 1520 1521 1521 1521 1522 1522 1522 1523 1523 1524 1525 1526 1527 1527 1528 1529 1531 1532 1533 1534 1536 1538 1539 1541 1542 1544 1545 1547 1548 1550 1551 1552 1553
1509 1510 1511 1513 1513 1514 1514 1516 1516 1517 1517 1518 1518 1518 1519 1519 1520 1520 1521 1522 1523 1524 1524 1525 1527 1528 1529 1530 1532 1533 1535 1537 1539 1540 1542 1543 1545 1546 1548 1550 1551 1553 1554
1506 1508 1509 1510 1510 1511 1511 1512 1513 1513 1514 1515 1515 1515 1516 1517 1517 1518 1519 1520 1521 1522 1523 1524 1526 1527 1528 1530 1531 1533 1534 1536 1538 1540 1541 1543 1544 1546 1548 1550 1551 1553 1554
1504 1505 1505 1506 1507 1508 1508 1508 1509 1510 1510 1510 1511 1512 1513 1514 1515 1515 1516 1518 1519 1520 1522 1523 1524 1526 1527 1529 1530 1531 1533 1535 1537 1539 1541 1543 1544 1546 1548 1549 1551 1552 1554
1501 1501 1502 1503 1503 1504 1505 1505 1505 1506 1507 1507 1508 1509 1510 1511 1512 1513 1514 1515 1517 1519 1521 1522 1523 1525 1526 1528 1529 1530 1532 1533 1535 1538 1540 1542 1543 1545 1547 1548 1550 1551 1553
1498 1498 1499 1499 1500 1501 1502 1502 1503 1503 1504 1504 1505 1506 1507 1508 1509 1511 1512 1514 1515 1517 1518 1520 1522 1523 1525 1526 1528 1529 1530 1532 1534 1536 1539 1541 1542 1544 1546 1547 1549 1550 1552
1495 1495 1496 1497 1497 1498 1499 1500 1500 1501 1502 1502 1502 1503 1505 1506 1507 1509 1510 1512 1513 1515 1517 1518 1519 1521 1523 1524 1526 1527 1529 1530 1532 1534 1537 1539 1541 1543 1545 1546 1548 1549 1550
1492 1492 1494 1495 1495 1495 1496 1497 1498 1499 1499 1500 1501 1502 1503 1504 1505 1506 1508 1510 1512 1513 1514 1516 1517 1519 1520 1522 1523 1525 1527 1529 1531 1533 1535 1537 1539 1541 1543 1545 1546 1547 1549
1491 1491 1492 1493 1493 1494 1494 1495 1496 1497 1498 1499 1500 1500 1501 1503 1504 1505 1506 1508 1509 1511 1512 1514 1515 1516 1518 1519 1521 1523 1525 1528 1530 1532 1534 1536 1538 1539 1541 1543 1544 1545 1547
1490 1490 1490 1491 1492 1492 1493 1494 1495 1496 1497 1498 1498 1499 1500 1502 1503 1504 1506 1507 1508 1509 1510 1511 1513 1514 1516 1517 1519 1521 1523 1525 1527 1529 1531 1533 1535 1537 1539 1541 1542 1543 1544
1489 1489 1489 1490 1491 1491 1492 1493 1494 1495 1496 1497 1498 1499 1499 1501 1502 1503 1504 1505 1506 1507 1508 1509 1511 1512 1514 1515 1517 1519 1521 1523 1525 1527 1529 1531 1533 1535 1537 1538 1540 1541 1541
1489 1489 1489 1490 1490 1491 1492 1493 1493 1494 1495 1496 1497 1498 1499 1500 1501 1502 1503 1504 1505 1506 1506 1508 1509 1510 1511 1513 1515 1517 1519 1521 1523 1525 1527 1529 1531 1533 1535 1536 1537 1538 1538
1489 1489 1489 1490 1490 1491 1492 1492 1493 1494 1495 1496 1496 1497 1498 1499 1500 1501 1502 1503 1503 1504 1505 1506 1507 1509 1510 1511 1513 1515 1516 1518 1520 1523 1525 1527 1528 1530 1532 1533 1533 1534 1535
1490 1490 1490 1491 1491 1491 1492 1493 1493 1494 1494 1495 1496 1497 1498 1499 1500 1500 1501 1501 1502 1503 1503 1505 1506 1507 1508 1510 1511 1513 1514 1516 1518 1520 1522 1524 1526 1527 1528 1529 1530 1530 1530